GFSGL_700_rhum_132.txt.gz
RH
88 86 93 94 96 97 97 98 98 100 100 98 83 74 67 65 62 46 35 32 25 19 18 32 58 56 74 89 82 87 96 90 69 53 49 72 82 85 93 90 85 76 65
97 94 95 96 96 97 97 98 100 100 100 100 96 74 58 57 55 50 44 37 31 28 24 20 42 79 50 53 61 77 87 89 68 53 60 75 84 75 72 79 76 77 70
94 96 96 96 96 97 96 97 99 100 100 95 91 79 56 59 56 52 49 43 35 31 29 29 25 27 52 54 45 53 63 80 59 68 66 72 93 86 77 80 72 69 74
47 87 94 96 96 96 96 97 97 98 92 86 86 93 98 83 63 48 47 49 47 49 44 38 36 30 30 40 61 77 83 67 71 84 74 91 88 90 92 74 76 68 69
7 8 11 12 16 32 48 87 98 100 96 93 98 99 100 100 98 98 75 55 100 100 97 87 68 58 35 29 45 64 86 93 65 66 79 88 99 76 83 99 95 88 85
11 11 12 11 11 10 9 9 10 21 36 62 82 72 74 86 97 99 100 100 92 100 99 99 100 100 94 83 62 53 53 77 81 71 69 63 59 74 76 95 89 94 96
13 13 13 13 12 12 12 11 11 10 10 9 9 14 31 52 54 61 85 95 98 100 99 90 100 96 74 58 48 47 45 52 54 72 72 71 67 93 92 86 94 96 96
14 13 13 13 13 12 12 12 11 10 10 9 9 9 9 8 10 23 37 48 77 90 96 98 99 100 98 88 69 57 78 67 68 74 78 82 83 97 97 99 86 94 81
13 14 14 14 14 13 13 13 12 12 12 11 10 9 8 8 8 8 8 8 24 57 62 76 88 95 97 98 99 100 99 99 97 96 94 100 99 100 100 99 99 92 99
14 14 14 14 14 14 14 13 13 12 12 12 12 11 10 9 8 6 6 6 6 7 8 9 14 46 55 62 86 95 97 98 98 98 98 100 100 99 100 100 100 100 100
13 14 14 15 14 14 15 15 14 14 13 12 12 12 12 12 10 9 8 7 6 5 4 5 5 6 7 8 7 16 47 37 83 94 94 96 97 98 98 98 98 99 98
13 13 14 15 15 16 16 16 16 16 16 15 14 13 12 11 12 12 12 11 9 8 7 6 5 4 4 4 4 4 5 6 7 9 12 28 61 86 85 86 93 96 97
13 14 16 16 16 15 16 16 18 18 18 18 18 17 15 14 13 14 13 13 12 11 10 10 8 7 6 5 4 4 3 3 3 3 3 4 6 7 8 10 27 79 94
14 15 15 16 16 16 17 18 22 24 23 21 22 22 20 18 17 16 15 15 14 13 11 10 8 8 7 6 5 4 4 4 3 3 3 2 2 2 3 3 5 7 7
15 15 16 16 15 16 16 17 22 28 30 28 26 26 24 22 19 18 17 16 15 14 12 9 8 6 5 4 4 4 4 3 3 3 3 3 2 2 2 2 2 2 2
15 15 16 16 16 17 18 18 25 33 33 32 31 31 28 25 23 21 19 16 14 12 10 8 6 6 5 4 4 4 3 3 3 3 3 3 3 3 3 3 2 2 3
14 15 16 17 17 18 18 19 35 38 37 36 36 34 31 28 22 18 14 12 10 9 6 6 5 5 4 4 4 4 4 4 4 4 4 4 4 3 3 3 3 3 4
14 16 17 17 18 18 19 22 42 41 40 40 39 35 30 24 18 13 10 9 7 6 6 6 6 6 6 6 6 6 6 6 6 6 6 5 5 5 5 4 4 4 4
16 17 18 18 18 19 19 30 47 42 44 43 38 30 22 17 14 10 8 8 7 8 8 8 9 9 9 9 9 9 9 9 8 8 8 7 7 6 6 6 5 5 5
18 18 18 18 19 19 22 43 47 44 47 42 33 24 16 11 8 8 8 8 10 10 11 11 12 12 12 12 12 12 12 12 11 10 10 9 9 8 8 7 7 7 7
19 19 19 18 18 20 32 53 44 49 45 34 26 17 9 9 10 11 12 12 13 14 14 15 15 16 16 16 16 15 15 14 14 14 13 13 12 11 11 10 9 9 10
20 20 19 18 19 25 56 48 47 50 33 24 15 10 9 12 14 15 15 16 16 17 18 19 19 19 19 19 19 18 19 19 19 19 18 18 18 16 15 14 13 14 16
21 20 18 18 22 56 60 45 52 35 23 16 10 10 14 16 17 18 18 19 20 21 21 21 20 19 18 18 20 21 23 25 27 30 30 28 26 23 21 19 19 21 29
21 19 18 20 56 73 43 54 37 22 14 9 10 15 17 19 20 21 22 23 24 23 20 17 15 15 17 20 24 30 34 36 38 43 42 39 36 34 33 34 35 43 54
20 18 20 51 82 49 56 42 19 12 9 12 17 20 22 22 23 24 25 24 22 18 16 16 20 25 30 33 37 40 43 46 49 52 50 48 48 48 47 49 56 82 78
18 20 57 87 55 61 48 18 11 10 13 20 23 24 24 26 27 27 26 22 18 18 20 26 32 35 39 43 46 49 52 55 57 61 66 68 67 65 64 70 82 91 77

GFSGL_700_rhum_138.txt.gz
RH
55 62 68 95 96 96 96 98 96 94 98 99 98 98 98 99 100 100 97 91 83 79 72 61 48 42 37 36 63 86 79 81 99 99 97 96 92 98 90 99 98 93 87
22 27 50 47 27 78 98 97 96 98 96 98 99 99 100 99 100 100 91 87 84 78 72 62 50 40 37 34 31 79 100 100 100 99 100 96 98 100 98 98 92 64 59
18 18 13 22 14 11 21 83 100 98 96 96 97 98 100 100 100 100 100 100 91 82 74 65 57 50 47 44 38 56 75 77 96 86 97 100 98 97 98 90 81 81 84
12 12 12 11 10 10 10 10 15 41 94 100 98 97 97 98 99 100 100 100 100 100 100 98 80 69 57 48 43 36 43 78 98 98 99 99 93 100 100 98 97 83 85
12 12 12 12 11 10 9 9 8 9 11 30 59 76 88 91 95 97 97 98 98 100 99 100 100 100 93 88 58 45 39 41 51 92 98 88 73 78 74 78 86 86 79
13 13 13 13 13 12 12 11 9 8 7 7 7 9 16 43 60 65 73 90 97 97 91 92 99 98 99 100 98 77 63 49 53 59 96 99 72 67 71 95 90 88 99
14 14 14 14 14 13 13 13 12 12 11 10 8 7 6 6 7 9 30 48 53 67 74 81 89 91 85 87 90 93 99 97 74 97 98 87 84 96 92 98 100 99 100
14 14 13 14 14 15 15 14 14 13 12 12 12 12 11 10 8 6 6 5 6 6 12 22 46 61 63 62 60 72 79 83 93 90 85 77 89 93 93 92 89 86 91
15 15 13 13 13 14 14 15 14 14 14 14 13 12 12 12 12 12 10 9 8 7 6 5 5 5 5 8 24 54 59 52 69 74 78 76 72 69 69 68 71 68 82
16 15 14 13 13 14 17 19 20 19 18 17 17 16 15 14 13 13 12 12 12 11 11 9 8 7 7 6 4 4 4 6 20 44 51 57 58 70 83 88 86 87 86
16 14 14 14 13 14 16 20 21 22 23 23 22 21 20 19 18 17 16 15 14 13 13 12 11 11 10 9 8 8 7 6 4 4 4 8 31 35 37 43 55 66 79
15 14 14 13 13 14 16 20 24 27 26 27 26 25 24 22 21 20 19 17 16 16 15 14 13 13 12 12 11 11 10 9 8 8 6 5 4 4 3 3 5 14 40
15 15 15 16 15 15 16 17 21 25 25 26 27 27 26 25 24 23 20 18 17 16 16 16 16 16 16 15 14 14 13 11 11 10 8 7 5 5 4 4 3 3 3
15 16 16 16 16 16 16 16 19 25 28 30 30 29 29 28 27 25 23 22 21 21 20 19 18 18 17 16 14 12 11 11 10 10 9 8 7 6 4 4 3 3 3
16 16 16 16 17 17 16 16 16 19 25 31 33 34 33 32 30 28 27 26 24 23 22 20 18 17 16 15 13 12 11 10 7 6 5 5 5 4 4 4 4 4 3
15 15 16 16 17 17 17 16 16 18 24 34 38 38 36 34 32 30 29 28 26 23 21 20 18 16 14 13 11 10 9 7 6 6 5 5 5 5 4 5 5 4 4
13 14 15 16 17 18 17 17 17 20 30 42 45 44 41 39 35 33 31 29 26 23 20 16 14 12 11 9 8 7 6 6 6 6 6 6 6 6 6 6 6 6 6
12 13 15 17 18 18 18 18 19 23 39 51 51 48 44 41 38 34 32 28 22 18 15 13 11 9 8 8 7 7 7 7 8 8 8 8 8 8 8 8 8 8 8
12 14 16 18 19 19 18 19 20 29 48 56 54 50 46 42 38 33 27 21 16 14 12 10 10 9 9 9 9 9 9 9 9 9 9 9 8 8 8 8 7 7 7
12 15 17 19 20 19 19 20 23 40 59 60 57 52 46 42 36 29 23 18 14 12 11 11 11 11 11 10 10 10 10 10 10 10 10 11 11 12 12 13 14 13 12
14 17 19 20 20 20 20 20 27 57 64 63 57 47 43 36 30 23 18 15 13 12 13 14 13 12 11 11 12 12 12 12 13 14 14 16 18 20 22 22 22 22 22
17 19 20 21 22 22 20 20 47 68 67 64 53 42 37 29 22 17 14 13 14 16 16 16 14 14 14 14 14 14 14 14 16 18 22 25 27 27 26 24 22 22 22
20 22 23 23 23 21 20 34 71 71 70 61 44 34 28 21 16 15 15 16 18 19 18 16 16 17 17 17 16 16 16 18 22 26 29 31 30 28 28 28 30 30 30
24 25 26 25 23 20 23 64 78 73 69 50 36 28 20 16 15 16 18 20 22 21 19 20 20 20 19 18 18 19 21 25 30 34 33 32 34 36 39 42 44 44 44
30 30 26 23 20 22 50 86 81 76 56 36 28 21 16 16 18 20 23 25 24 23 24 24 23 22 21 21 22 23 28 34 37 36 37 43 47 49 52 57 60 59 59
33 27 23 22 25 36 90 92 87 67 39 29 21 16 17 20 23 26 28 28 27 27 27 27 25 23 23 24 26 31 38 42 41 43 47 49 54 61 67 71 70 68 68

GFSGL_700_rhum_141.txt.gz
RH
48 31 34 50 46 16 80 96 97 97 97 97 98 100 97 97 98 98 98 99 100 100 93 83 76 70 62 52 38 39 43 65 56 76 98 95 86 98 99 97 86 100 92
54 48 28 18 54 50 13 22 97 96 96 96 97 99 99 98 98 98 98 98 99 99 86 79 76 74 74 71 66 58 46 51 50 77 97 96 88 83 97 99 91 100 100
12 27 12 11 10 9 14 9 14 65 98 97 97 97 98 99 100 99 99 99 99 100 100 100 85 72 63 57 53 49 45 50 65 71 92 88 92 93 99 99 100 98 97
12 12 12 12 12 10 8 8 8 8 17 42 84 95 95 96 96 97 98 98 98 99 100 100 100 100 93 69 57 50 48 48 59 82 87 98 96 100 97 99 98 94 89
12 13 13 13 12 12 12 11 9 7 7 7 7 17 40 62 75 88 96 96 97 98 98 98 99 99 100 100 90 59 59 61 62 74 71 67 95 95 99 99 100 100 99
13 13 13 13 12 12 12 12 12 12 11 9 8 7 6 6 6 9 30 56 71 87 94 94 99 98 99 100 100 100 100 81 79 83 54 60 85 84 96 99 100 100 98
13 13 14 13 12 12 13 14 14 13 12 12 12 12 11 10 9 8 6 5 5 9 36 52 60 58 63 70 85 92 95 99 97 98 96 86 76 83 66 89 98 96 89
14 14 14 13 12 12 15 16 16 16 16 15 14 13 13 12 12 12 11 11 10 9 7 6 5 5 11 24 54 53 50 60 73 84 91 84 82 81 86 83 88 89 94
14 14 15 14 14 14 16 20 21 20 20 18 18 18 17 16 15 14 13 12 12 11 11 10 10 9 8 7 6 5 7 10 28 36 51 66 71 66 63 60 66 65 61
14 14 14 14 14 17 16 16 19 21 22 22 22 21 20 19 19 18 17 16 14 13 13 13 12 11 11 10 10 9 9 8 7 6 5 4 7 22 40 50 53 58 60
15 15 14 14 13 15 14 15 18 19 22 24 24 23 24 23 22 22 20 19 17 16 15 14 13 12 12 12 12 11 11 10 10 10 9 8 8 7 6 4 4 11 26
15 16 15 14 13 14 14 15 19 21 24 26 25 24 24 24 23 23 22 20 19 18 17 16 15 15 15 14 13 13 12 12 12 11 11 10 10 10 9 8 7 6 5
16 16 15 15 14 14 13 15 17 19 22 24 24 25 26 26 26 25 24 22 20 19 18 17 16 16 15 15 15 15 15 14 14 14 13 12 11 11 10 9 8 8 7
16 16 16 16 15 15 15 15 15 16 18 23 27 29 30 30 30 28 26 24 23 22 21 20 19 18 18 17 17 16 16 15 15 14 13 12 11 10 9 8 7 6 6
16 16 16 16 16 16 16 16 15 16 17 21 30 34 35 36 34 32 30 28 27 25 24 22 21 20 19 19 18 17 16 14 13 12 11 10 9 7 6 6 5 5 4
16 16 16 16 16 16 16 16 16 16 17 21 31 38 41 40 38 36 34 32 30 27 25 23 22 20 19 18 16 15 14 12 10 9 8 7 7 6 6 5 5 5 5
16 16 15 15 16 16 17 17 17 17 17 22 34 43 45 44 42 39 37 34 32 28 26 23 21 19 17 15 14 12 10 8 7 7 6 6 6 6 6 6 6 6 6
16 14 14 14 15 17 18 18 18 18 18 23 34 45 49 48 45 42 39 36 31 29 26 22 19 16 14 12 10 9 8 7 7 7 7 7 7 7 8 8 8 8 7
15 13 12 14 16 18 19 19 19 20 22 27 37 51 53 50 48 44 40 36 32 27 22 18 15 12 11 10 9 8 8 8 8 8 8 9 9 9 9 9 9 9 9
15 12 12 14 17 19 19 20 20 21 23 35 52 58 58 53 49 45 39 32 27 22 18 14 13 12 11 10 10 9 9 10 10 11 11 11 11 12 12 12 12 13 13
14 12 13 16 18 20 20 21 22 22 28 43 60 64 61 53 49 44 34 27 21 17 14 13 13 13 12 11 10 11 12 13 13 14 14 14 15 16 18 19 20 19 18
26 18 15 18 19 21 22 22 22 23 37 56 68 69 60 51 45 37 28 20 15 15 15 16 15 14 12 13 14 15 16 16 16 16 16 18 21 24 25 24 24 26 27
16 16 17 19 21 22 23 24 22 28 47 73 76 69 56 47 38 27 20 16 16 18 18 18 16 15 15 17 18 19 19 18 18 19 21 26 30 30 30 32 33 33 33
26 65 33 22 24 39 47 22 25 37 68 82 78 63 48 40 28 19 16 18 20 21 20 18 17 18 20 22 22 22 21 21 22 26 32 35 35 37 37 37 40 44 47
94 52 65 45 74 44 22 28 39 54 86 87 75 52 41 28 19 17 20 22 24 23 21 21 22 24 26 26 24 23 24 26 31 37 41 41 42 40 41 47 52 56 60
95 57 75 78 67 24 48 48 44 89 94 87 60 43 28 19 18 21 25 26 26 24 24 26 29 30 29 27 26 26 28 35 41 46 47 47 45 47 50 57 62 67 68

GFSGL_700_rhum_144.txt.gz
RH
24 57 42 31 16 13 33 39 44 96 96 96 97 96 96 98 97 97 98 97 98 99 99 100 100 96 84 76 66 56 45 43 32 33 35 47 82 60 80 76 73 81 89
21 33 20 12 11 9 9 8 9 28 94 96 96 96 98 98 98 99 98 97 97 97 99 100 100 100 95 83 76 73 68 67 58 89 85 60 55 88 96 100 98 98 99
34 13 12 12 12 11 10 8 7 7 9 28 52 85 96 97 97 96 96 96 98 98 98 99 100 100 89 72 73 79 78 72 72 70 72 51 56 64 90 95 100 96 100
28 12 12 12 12 12 12 11 10 7 6 6 6 6 15 51 67 82 94 96 96 97 98 98 98 100 100 100 94 67 62 60 62 68 76 68 61 88 90 100 82 91 99
33 12 13 12 12 12 11 11 12 12 11 10 9 8 6 6 6 8 29 67 87 95 97 97 97 98 99 100 100 99 91 74 61 69 66 59 80 85 90 80 97 97 91
13 12 13 13 12 12 12 12 12 13 13 12 12 12 12 11 11 9 7 5 6 13 43 43 58 75 85 96 97 98 100 100 100 100 98 70 53 39 43 48 93 84 99
12 13 13 12 12 13 14 14 14 15 15 15 14 14 13 13 12 12 12 11 10 8 6 5 5 7 24 43 72 81 74 90 98 99 99 94 100 99 92 90 80 77 82
13 14 14 13 13 16 18 19 18 18 19 19 18 17 16 16 15 15 15 14 13 12 11 10 10 9 8 6 7 8 11 33 32 48 65 72 82 82 79 76 78 77 82
13 14 14 14 14 18 19 22 22 21 22 22 22 22 21 20 18 19 18 17 16 14 13 13 12 11 10 9 10 9 9 9 8 7 5 6 14 33 39 40 42 40 55
14 14 15 14 14 17 18 20 22 21 22 22 23 24 23 22 21 20 19 18 17 15 15 15 15 14 13 13 12 11 11 10 9 8 8 9 9 8 8 7 6 5 4
14 15 15 15 15 16 17 17 18 18 18 20 22 24 24 24 24 23 22 21 19 18 17 16 14 13 13 12 12 12 11 11 11 11 11 10 10 10 10 10 10 9 9
15 16 16 15 15 14 14 14 15 17 19 21 24 25 26 27 26 26 25 23 22 21 19 18 16 16 15 15 14 14 14 13 13 13 13 13 13 13 12 12 11 11 11
16 17 17 16 15 15 14 14 14 14 15 17 20 22 26 27 28 29 28 27 25 24 22 21 19 18 17 16 16 15 15 15 15 14 14 14 13 13 13 12 10 10 10
17 17 17 17 16 16 15 15 14 14 14 14 14 18 23 28 31 32 32 30 29 27 26 24 22 21 20 19 18 18 16 16 15 14 14 13 13 12 12 12 12 11 10
17 18 17 17 16 16 16 16 15 15 14 14 15 17 21 27 32 35 35 34 32 30 28 26 25 23 22 21 20 19 18 17 15 14 13 12 11 10 9 9 8 7 7
19 18 18 17 16 16 16 16 16 16 16 15 16 18 22 28 34 38 39 37 34 32 30 29 27 26 25 23 22 20 18 16 14 11 9 7 6 6 5 5 5 4 4
19 20 18 17 16 16 16 16 17 17 17 17 19 21 27 36 42 43 42 40 39 36 34 32 30 28 26 24 21 18 16 13 10 8 6 6 6 6 6 6 6 6 6
20 21 19 17 15 15 15 16 17 18 18 20 20 23 29 40 45 46 46 45 42 40 38 34 31 28 24 20 16 13 10 8 7 7 7 7 7 7 8 8 8 8 8
22 22 19 16 14 13 15 17 19 19 19 20 22 27 35 45 52 54 51 48 46 43 39 34 28 23 18 14 11 9 8 8 8 8 8 8 9 9 9 10 10 10 10
23 22 21 15 13 13 16 18 19 20 21 22 25 31 43 52 57 59 55 50 47 42 36 29 22 16 12 10 9 9 9 9 9 9 10 11 11 12 12 12 12 13 14
93 31 72 91 21 14 16 18 20 21 22 23 27 42 50 58 65 63 56 51 46 39 30 22 15 11 11 11 10 10 10 10 11 13 14 15 15 15 16 17 18 20 21
86 83 18 14 14 16 18 20 30 37 24 27 32 46 54 68 70 62 56 49 40 29 20 14 12 12 12 12 11 11 12 14 17 18 18 18 19 21 24 27 28 28 26
23 80 41 63 85 24 78 56 25 40 44 26 43 48 65 76 72 60 52 41 28 18 14 13 14 14 13 12 13 15 18 20 21 20 20 22 27 32 34 34 33 32 31
92 96 82 35 20 51 44 24 87 79 33 49 46 64 82 81 68 56 43 28 17 14 14 15 15 14 14 15 19 23 24 23 22 23 27 32 37 40 40 38 37 38 37
97 94 77 58 96 80 93 96 96 58 69 56 59 87 88 76 61 44 27 17 14 15 16 16 16 16 18 22 27 27 25 25 26 30 36 41 46 45 44 43 43 44 44
98 97 98 97 98 97 97 96 67 92 69 58 90 93 83 65 45 26 17 15 17 18 18 18 19 21 27 31 30 27 27 28 32 39 44 50 52 51 50 50 50 50 52

GFSGL_700_rhum_147.txt.gz
RH
46 43 37 23 11 12 11 8 7 7 34 58 96 97 93 93 87 96 96 96 97 98 97 98 99 100 100 93 86 79 65 52 37 29 33 32 36 38 42 39 36 35 83
34 36 27 11 12 12 11 11 8 7 6 7 18 83 93 96 96 96 94 94 98 98 98 98 99 99 100 100 96 89 86 75 60 54 96 64 48 39 38 38 55 59 76
43 41 28 12 12 12 11 11 11 11 9 7 6 7 9 28 75 95 96 95 96 95 96 97 99 100 100 100 97 99 98 94 92 93 89 87 71 75 67 56 63 56 81
63 56 25 12 12 12 11 11 11 11 11 11 11 10 8 6 6 15 34 68 79 86 97 97 98 99 99 100 100 88 71 74 83 92 100 100 99 78 75 63 68 75 76
47 38 20 13 12 12 12 12 13 12 12 12 12 12 12 11 11 9 6 5 7 6 24 69 91 97 97 98 99 99 100 98 86 80 99 99 100 92 71 84 74 75 72
43 28 14 13 12 13 13 14 15 15 15 15 15 15 14 14 13 13 12 11 10 8 6 5 8 38 95 92 96 97 98 99 99 99 100 100 100 100 79 72 79 72 63
15 11 12 13 13 13 16 17 18 19 19 19 19 18 18 17 16 14 14 14 14 13 12 11 10 8 8 10 12 43 57 70 91 100 100 100 99 100 95 92 91 88 83
9 12 13 14 13 13 16 18 19 21 22 22 22 22 21 20 19 17 16 16 15 14 14 13 13 12 11 10 10 9 8 7 6 14 31 50 62 70 75 76 73 70 71
10 12 13 14 14 14 16 18 19 18 20 21 20 21 22 22 22 21 19 18 17 16 16 16 16 14 12 12 12 11 11 11 10 9 9 9 9 8 8 7 7 6 6
10 13 14 15 14 14 17 17 17 19 17 19 20 20 20 23 24 24 23 22 20 18 17 17 16 15 14 14 14 13 14 12 11 11 11 11 10 10 10 10 9 9 9
10 14 14 15 15 15 16 16 16 18 18 16 17 18 18 20 22 24 25 25 24 22 21 19 17 16 16 15 15 14 13 12 12 12 11 10 10 10 10 10 10 10 10
10 15 15 16 17 16 15 15 15 14 13 13 14 14 16 17 18 21 25 27 27 27 25 23 22 20 18 17 16 15 15 14 14 13 13 12 13 12 12 12 11 10 9
11 15 16 17 18 17 16 15 14 13 13 13 14 15 16 18 19 22 24 27 29 29 28 26 25 23 22 21 19 18 17 16 15 14 13 12 11 11 11 12 11 11 11
16 16 17 17 18 18 17 16 16 15 15 14 15 15 16 17 21 24 28 28 29 31 30 28 26 26 24 24 22 21 19 18 17 16 15 15 14 13 13 12 11 10 9
12 17 18 18 18 18 17 17 16 16 16 16 15 15 17 19 24 27 30 32 34 34 33 32 30 29 27 26 24 22 21 20 19 18 16 14 12 10 9 8 7 6 5
12 15 18 19 19 18 18 17 17 17 17 17 17 17 18 20 22 28 35 37 38 39 38 37 36 34 31 29 26 24 23 21 19 16 12 9 7 6 5 5 5 5 5
9 13 19 20 20 19 18 17 16 17 18 18 18 18 20 22 27 34 41 43 44 44 43 42 40 38 35 32 29 26 23 20 17 12 9 6 6 5 6 6 7 7 7
8 10 17 36 26 19 17 16 16 17 18 19 19 20 22 25 33 40 45 46 48 50 48 45 42 40 36 33 28 24 18 13 9 7 6 6 7 7 7 7 8 8 8
15 11 20 22 36 22 17 15 15 16 18 19 20 22 24 29 38 48 50 52 57 56 52 48 44 39 34 28 22 15 11 8 8 8 8 8 8 8 8 9 10 10 11
49 21 22 39 21 18 16 14 14 17 19 20 21 23 25 30 43 49 53 61 64 59 55 50 43 35 27 18 12 9 8 8 9 9 9 9 10 11 12 12 13 13 13
96 44 96 47 23 62 31 15 15 17 19 21 27 39 38 40 50 52 61 70 67 61 54 47 37 23 15 10 9 9 10 9 10 10 11 13 14 16 15 15 15 17 20
97 50 86 98 69 66 70 86 82 34 29 83 61 47 49 58 56 62 77 75 68 60 49 36 23 13 10 10 10 10 10 10 12 14 18 18 17 16 17 20 23 28 28
96 96 47 83 96 44 16 37 32 89 93 41 85 82 83 72 60 82 83 74 63 50 34 20 12 11 11 11 12 12 12 15 19 21 20 18 18 22 25 28 32 34 33
98 97 83 27 91 97 95 44 51 94 67 92 97 97 95 83 89 92 81 64 51 33 17 12 12 12 12 13 14 15 20 23 24 22 20 21 25 29 33 38 40 40 39
97 96 87 85 95 77 59 94 97 97 99 96 96 96 94 93 98 90 69 51 32 17 14 14 14 14 14 16 19 25 28 26 23 22 25 28 32 37 42 46 45 47 46
96 97 99 98 98 98 100 97 99 99 98 99 98 97 97 100 96 81 48 30 17 15 15 15 16 16 19 22 28 31 29 25 25 27 29 34 40 45 52 54 53 54 53

GFSGL_700_rhum_150.txt.gz
RH
43 38 44 40 24 11 12 11 11 10 8 7 10 11 37 96 97 96 97 98 97 97 98 97 96 96 96 98 100 96 85 72 56 46 40 38 36 40 43 43 42 40 39
47 41 46 36 22 12 11 10 11 11 11 10 8 7 7 10 55 95 92 96 97 98 98 97 98 97 97 97 100 100 98 90 75 62 56 53 40 40 40 37 37 40 39
50 43 51 45 25 12 11 11 11 11 11 11 11 11 10 8 6 7 13 13 64 95 97 98 97 98 99 99 98 99 99 100 100 100 100 100 86 93 82 55 42 36 36
50 44 59 60 19 12 11 12 12 13 13 13 13 12 12 12 11 10 8 6 5 16 49 98 98 98 98 98 100 100 100 100 100 100 100 100 100 100 95 77 69 61 58
49 55 61 35 14 12 12 13 14 15 15 15 15 15 14 15 13 12 12 11 11 8 6 23 87 95 98 98 98 100 100 100 98 94 95 100 100 100 99 100 100 88 75
55 64 40 21 13 13 12 15 17 18 19 19 19 19 18 17 16 15 14 13 13 12 12 11 8 8 17 70 94 98 98 98 98 99 98 98 98 100 99 100 100 96 98
64 61 21 12 12 13 13 17 18 20 20 20 20 20 19 19 18 18 17 17 15 14 13 12 12 11 10 8 8 7 10 38 87 97 98 98 98 99 99 99 100 100 100
78 45 10 12 13 14 14 19 18 19 20 19 18 19 19 18 18 20 19 19 18 17 16 15 14 13 12 12 12 12 11 10 8 7 10 18 32 44 57 65 68 73 72
88 56 11 13 14 15 15 18 19 20 18 17 18 15 16 17 18 18 20 21 21 20 18 17 16 15 14 13 13 12 12 12 11 11 10 10 10 10 10 9 8 8 8
88 55 13 13 14 16 16 17 19 18 18 16 16 15 16 16 17 18 19 19 22 23 22 22 21 19 17 16 15 14 14 12 11 10 10 10 11 11 10 10 10 10 10
70 27 13 14 16 17 17 17 18 18 17 15 15 15 15 17 18 20 21 21 22 22 24 24 24 22 21 19 18 16 15 14 13 13 12 11 10 10 10 9 9 9 9
44 15 12 15 16 19 18 18 17 17 16 15 14 14 14 15 17 18 20 21 23 25 26 26 25 24 23 22 21 19 18 17 16 15 14 14 14 13 12 11 10 9 8
43 10 11 15 16 19 20 19 18 17 16 15 14 14 14 15 17 18 20 23 26 28 30 30 29 28 27 25 24 22 22 20 19 18 16 15 14 14 12 12 11 10 10
30 9 11 17 18 19 20 19 18 17 17 16 16 16 16 16 17 19 21 26 30 31 33 34 33 32 31 30 28 26 24 22 21 19 18 16 16 15 14 13 12 12 11
34 9 9 16 18 19 21 20 19 18 18 18 18 17 17 17 19 20 24 29 34 37 38 38 38 38 37 36 34 32 29 26 24 22 20 19 17 16 14 13 11 10 9
48 11 10 16 18 19 20 20 21 18 18 18 19 19 19 21 23 26 29 34 40 41 41 43 44 44 42 39 37 34 32 30 27 25 22 20 17 14 11 9 7 6 5
69 15 9 12 18 20 21 48 20 18 17 18 19 20 20 22 24 27 33 40 44 45 47 48 50 50 46 42 40 37 34 31 29 24 20 16 13 10 8 6 5 5 5
97 43 11 9 17 22 39 71 21 17 16 17 18 19 20 23 26 30 37 46 49 50 51 55 57 54 50 46 42 38 32 27 22 17 13 10 8 6 6 6 6 6 6
98 91 30 12 15 21 22 45 80 16 15 16 18 19 20 24 29 36 48 53 54 55 59 64 61 57 52 47 41 32 24 17 12 9 8 7 7 7 6 7 8 9 9
98 97 86 19 17 22 22 26 40 84 28 17 18 19 21 24 32 42 66 66 60 59 68 69 64 58 52 42 30 19 13 10 8 8 8 8 8 8 9 10 12 12 12
97 98 88 32 27 27 42 25 17 15 16 21 18 20 42 71 63 85 85 79 65 74 76 70 63 55 40 24 15 10 9 9 9 10 10 11 12 14 15 15 14 14 16
96 97 96 97 76 98 84 36 91 98 90 40 25 68 93 86 94 94 94 87 91 90 80 66 54 40 22 13 10 10 10 10 12 13 14 15 18 18 17 16 18 22 24
97 98 99 98 94 98 98 68 32 30 31 46 97 97 96 98 97 97 96 96 95 93 78 59 38 23 12 11 11 11 12 14 15 17 21 22 20 18 19 22 25 29 34
99 100 100 100 98 64 96 98 48 84 61 51 96 99 99 98 98 98 98 97 97 89 64 37 18 13 12 13 13 14 16 16 19 24 24 21 20 22 24 28 32 36 42
98 99 100 99 97 62 81 99 96 79 78 99 99 98 99 99 98 99 99 98 94 64 35 16 14 14 14 15 18 19 19 23 28 26 22 22 25 26 31 36 40 46 49
99 100 100 98 99 99 99 98 98 100 100 98 100 99 99 100 100 100 99 97 68 34 17 15 15 16 17 20 21 23 29 32 28 24 25 28 30 35 38 42 48 53 55